Change the Weather History Date:

Thursday, February 2, 2012

  Actual Average Record
Temperature  
Mean Temperature 35 °F 26 °F  
Max Temperature 43 °F 33 °F 56 °F (1903)
Min Temperature 26 °F 19 °F -11 °F (1951)
Degree Days  
Heating Degree Days 30 39  
Month to date heating degree days 50 78  
Since 1 July heating degree days 3146 3627  
Cooling Degree Days 0 0  
Month to date cooling degree days 0 0  
Year to date cooling degree days 0 0  
Moisture  
Dew Point 29 °F    
Average Humidity 76    
Maximum Humidity 92    
Minimum Humidity 60    
Precipitation  
Precipitation 0.00 in 0.07 in 0.53 in (1990)
Month to date precipitation 0.02 0.13  
Year to date precipitation 2.44 2.18  
Snow  
Snow 0.00 in 0.40 in - ()
Month to date snowfall 0.0 0.8  
Since 1 July snowfall 11.4 21.9  
Snow Depth 0.00 in    
Sea Level Pressure  
Sea Level Pressure 30.26 in    
Wind  
Wind Speed 4 mph (NW)    
Max Wind Speed 12 mph    
Max Gust Speed 20 mph    
Visibility 9 miles    
Events      
T = Trace of Precipitation, MM = Missing Value Source: NWS Daily Summary

Daily Weather History Graph

Daily Weather History Graph

Search for Another Location

Airport or City:

Trip Planner

Search our weather history database for the weather conditions in past years. The results will help you decide how hot, cold, wet, or windy it might be!

Date:

Astronomy

Feb. 02, 2012 Rise Set
Actual Time 7:46 AM EST 5:51 PM EST
Civil Twilight 7:17 AM EST 6:21 PM EST
Nautical Twilight 6:44 AM EST 6:54 PM EST
Astronomical Twilight 6:11 AM EST 7:26 PM EST
Moon 1:00 PM EST 3:29 AM EST
Length of Visible Light 11h 03m
Length of Day
10h 05m
Waxing Gibbous, 73% of the Moon is Illuminated
Feb 2
Waxing Gibbous
Feb 7
Full
Feb 14
Last Quarter
Feb 21
New
Feb 29
First Quarter

Hourly Weather History & Observations

Time (EST) Temp. Windchill Dew Point Humidity Pressure Visibility Wind Dir Wind Speed Gust Speed Precip Events Conditions
12:42 AM 37.4 °F 32.1 °F 32.0 °F 81% 30.12 in 9.0 mi NW 6.9 mph - N/A   Scattered Clouds
12:52 AM 37.0 °F 32.4 °F 32.0 °F 82% 30.13 in 9.0 mi NW 5.8 mph - N/A   Clear
1:52 AM 36.0 °F - 30.9 °F 82% 30.13 in 9.0 mi Calm Calm - N/A   Clear
2:52 AM 34.0 °F - 30.0 °F 85% 30.13 in 7.0 mi Calm Calm - N/A   Clear
3:38 AM 33.8 °F 29.6 °F 30.2 °F 87% 30.12 in 7.0 mi NW 4.6 mph - N/A   Mostly Cloudy
3:52 AM 35.1 °F 32.2 °F 30.9 °F 85% 30.14 in 7.0 mi NW 3.5 mph - N/A   Overcast
4:52 AM 35.1 °F 32.2 °F 30.9 °F 85% 30.16 in 8.0 mi NW 3.5 mph - N/A   Overcast
5:52 AM 35.1 °F - 30.9 °F 85% 30.17 in 7.0 mi Calm Calm - N/A   Overcast
6:22 AM 35.6 °F 32.8 °F 30.2 °F 81% 30.16 in 8.0 mi WNW 3.5 mph - N/A   Overcast
6:52 AM 35.1 °F 30.1 °F 30.0 °F 82% 30.19 in 9.0 mi WNW 5.8 mph - N/A   Overcast
7:52 AM 35.1 °F 29.3 °F 30.0 °F 82% 30.22 in 8.0 mi West 6.9 mph - N/A   Overcast
8:52 AM 36.0 °F 31.1 °F 30.0 °F 79% 30.23 in 8.0 mi WNW 5.8 mph - N/A   Overcast
9:52 AM 37.0 °F 31.0 °F 30.9 °F 79% 30.26 in 8.0 mi WNW 8.1 mph - N/A   Overcast
10:52 AM 39.0 °F 34.0 °F 30.9 °F 73% 30.27 in 10.0 mi NW 6.9 mph - N/A   Overcast
11:22 AM 39.2 °F 32.0 °F 28.4 °F 65% 30.25 in 10.0 mi NW 11.5 mph - N/A   Overcast
11:52 AM 39.9 °F 33.9 °F 28.0 °F 63% 30.28 in 10.0 mi NNW 9.2 mph - N/A   Overcast
12:52 PM 39.0 °F 32.8 °F 28.9 °F 67% 30.29 in 10.0 mi WNW 9.2 mph - N/A   Overcast
1:52 PM 39.9 °F 33.9 °F 28.9 °F 65% 30.30 in 10.0 mi WNW 9.2 mph - N/A   Overcast
2:52 PM 41.0 °F 36.4 °F 28.9 °F 62% 30.31 in 10.0 mi WNW 6.9 mph - N/A   Overcast
3:52 PM 43.0 °F 38.8 °F 30.0 °F 60% 30.32 in 10.0 mi NNW 6.9 mph - N/A   Mostly Cloudy
4:36 PM 42.8 °F 39.3 °F 30.2 °F 61% 30.31 in 10.0 mi NNW 5.8 mph - N/A   Partly Cloudy
4:52 PM 42.1 °F 39.2 °F 30.0 °F 62% 30.33 in 10.0 mi NNW 4.6 mph - N/A   Clear
5:52 PM 39.9 °F - 30.0 °F 68% 30.35 in 10.0 mi Calm Calm - N/A   Clear
6:52 PM 34.0 °F - 28.9 °F 82% 30.37 in 10.0 mi Calm Calm - N/A   Clear
7:52 PM 30.9 °F - 27.0 °F 85% 30.38 in 10.0 mi Calm Calm - N/A   Clear
8:52 PM 30.0 °F - 27.0 °F 88% 30.40 in 7.0 mi Calm Calm - N/A   Clear
9:52 PM 30.0 °F 26.5 °F 27.0 °F 88% 30.41 in 8.0 mi ESE 3.5 mph - N/A   Clear
10:52 PM 28.9 °F - 26.1 °F 89% 30.42 in 7.0 mi Calm Calm - N/A   Clear
11:52 PM 27.0 °F - 25.0 °F 92% 30.42 in 7.0 mi Calm Calm - N/A   Clear